Weather History for Pittsburgh Allegheny Co., PA

Change the Weather History Date:

Wednesday, November 28, 2012

  Actual Average Record
Temperature  
Mean Temperature 34 °F -  
Max Temperature 39 °F 54 °F 76 °F (1990)
Min Temperature 30 °F 34 °F 18 °F (1991)
Degree Days  
Heating Degree Days 30    
Moisture  
Dew Point 18 °F    
Average Humidity 54    
Maximum Humidity 61    
Minimum Humidity 36    
Precipitation  
Precipitation 0.00 in - - ()
Sea Level Pressure  
Sea Level Pressure 30.32 in    
Wind  
Wind Speed 7 mph (WSW)    
Max Wind Speed 17 mph    
Max Gust Speed 23 mph    
Visibility 10 miles    
Events      
Averages and records for this station are not official NWS values.
T = Trace of Precipitation, MM = Missing Value Source: NWS Daily Summary

Daily Weather History Graph

Daily Weather History Graph

Search for Another Location

Airport:

Trip Planner

Search our weather history database for the weather conditions in past years. The results will help you decide how hot, cold, wet, or windy it might be!

Date:

Astronomy

Nov. 28, 2012 Rise Set
Actual Time 7:20 AM EST 4:54 PM EST
Civil Twilight 6:50 AM EST 5:24 PM EST
Nautical Twilight 6:16 AM EST 5:58 PM EST
Astronomical Twilight 5:44 AM EST 6:31 PM EST
Moon 5:08 PM EST (11/28) 7:16 AM EST (11/28)
Length of Visible Light 10h 34m
Length of Day
9h 34m
Full, 100% of the Moon is Illuminated
Nov 28
Full
Dec 6
Last Quarter
Dec 13
New
Dec 20
First Quarter
Dec 28
Full

Hourly Weather History & Observations

Time (EST) Temp. Windchill Dew Point Humidity Pressure Visibility Wind Dir Wind Speed Gust Speed Precip Events Conditions
12:53 AM 32.0 °F 27.5 °F 19.9 °F 61% 30.30 in 10.0 mi West 4.6 mph - N/A   Overcast
1:53 AM 32.0 °F - 19.0 °F 59% 30.29 in 10.0 mi Calm Calm - N/A   Overcast
2:53 AM 32.0 °F 28.7 °F 19.0 °F 59% 30.30 in 10.0 mi NNW 3.5 mph - N/A   Overcast
3:49 AM 32.0 °F 26.4 °F 19.4 °F 60% 30.24 in 10.0 mi West 5.8 mph - N/A   Overcast
3:53 AM 32.0 °F 26.4 °F 19.9 °F 61% 30.29 in 10.0 mi West 5.8 mph - N/A   Overcast
4:29 AM 32.0 °F 27.5 °F 19.4 °F 60% 30.23 in 10.0 mi WSW 4.6 mph - N/A   Overcast
4:53 AM 32.0 °F 27.5 °F 19.9 °F 61% 30.29 in 10.0 mi WSW 4.6 mph - N/A   Overcast
5:53 AM 32.0 °F 25.6 °F 19.9 °F 61% 30.30 in 10.0 mi WSW 6.9 mph - N/A   Overcast
6:53 AM 32.0 °F 24.8 °F 19.9 °F 61% 30.30 in 10.0 mi SW 8.1 mph - N/A   Overcast
7:53 AM 32.0 °F 23.0 °F 19.9 °F 61% 30.32 in 10.0 mi WSW 11.5 mph - N/A   Overcast
8:53 AM 32.0 °F 24.2 °F 19.9 °F 61% 30.34 in 10.0 mi West 9.2 mph 17.3 mph N/A   Overcast
9:53 AM 33.1 °F 26.1 °F 19.9 °F 59% 30.35 in 10.0 mi WSW 8.1 mph - N/A   Overcast
10:32 AM 33.8 °F 24.8 °F 19.4 °F 56% 30.30 in 10.0 mi WSW 12.7 mph - N/A   Overcast
10:53 AM 34.0 °F 24.6 °F 19.9 °F 56% 30.36 in 10.0 mi West 13.8 mph - N/A   Mostly Cloudy
11:22 AM 35.6 °F 26.2 °F 19.4 °F 52% 30.29 in 10.0 mi WSW 15.0 mph 21.9 mph N/A   Scattered Clouds
11:53 AM 35.1 °F 25.9 °F 19.0 °F 52% 30.34 in 10.0 mi WSW 13.8 mph - N/A   Partly Cloudy
12:53 PM 37.9 °F 30.5 °F 19.0 °F 47% 30.32 in 10.0 mi WSW 11.5 mph - N/A   Clear
1:53 PM 39.0 °F 31.8 °F 18.0 °F 43% 30.30 in 10.0 mi SW 11.5 mph - N/A   Clear
2:53 PM 39.9 °F 31.1 °F 15.1 °F 36% 30.30 in 10.0 mi West 17.3 mph 23.0 mph N/A   Partly Cloudy
3:53 PM 39.0 °F 34.0 °F 14.0 °F 36% 30.30 in 10.0 mi West 6.9 mph 19.6 mph N/A   Clear
4:53 PM 37.0 °F 30.4 °F 14.0 °F 39% 30.32 in 10.0 mi West 9.2 mph - N/A   Clear
5:53 PM 36.0 °F 30.3 °F 15.1 °F 43% 30.34 in 10.0 mi West 6.9 mph - N/A   Clear
6:53 PM 35.1 °F 30.1 °F 16.0 °F 46% 30.36 in 10.0 mi West 5.8 mph - N/A   Clear
7:53 PM 33.1 °F 26.1 °F 16.0 °F 50% 30.37 in 10.0 mi West 8.1 mph - N/A   Clear
8:53 PM 32.0 °F 25.6 °F 17.1 °F 54% 30.38 in 10.0 mi WSW 6.9 mph - N/A   Clear
9:53 PM 30.9 °F 27.5 °F 17.1 °F 57% 30.39 in 10.0 mi WNW 3.5 mph - N/A   Clear
10:53 PM 30.0 °F 23.2 °F 17.1 °F 59% 30.39 in 10.0 mi WSW 6.9 mph - N/A   Clear
11:53 PM 30.9 °F 24.3 °F 18.0 °F 59% 30.39 in 10.0 mi WSW 6.9 mph - N/A   Mostly Cloudy